Погода в Жаслыке

Погода в Жаслыке : погода сейчас, прогноз погоды и архив. Всё, что Вы хотите узнать о погоде в Жаслыке!

Хотите узнать прогноз погоды в Жаслыке? Тогда Вам сюда: Погода в Жаслыке

Поиск расширенной информации на нашем сайте:

Другие новости

Новости СМИ2

Главная страница сайта

Новости сайта

03.07.2017

Напоминаем, что на нашем специализированном сайте Метеоцентр.Азия вы можете получить высокодетализированные автоматические прогнозы погоды по пунктам России, СНГ и мира в авиационном формате (включающие направление и скорость ветра, видимость, явления погоды, количество и форму облачности, нижнюю и верхнюю границу облачности).


Погода в Жаслыке - сегодня

Время (UTC), дата Ветер
(°,м/с) 
Видим.   Явления Облачность Т
(°С)
Тd
(°С)
f(%) Тe
(°С)
Pmin
(гПа)
dP
(гПа)
Po
(мм)
O2
(г/м3)
Тmin Tmax R s Состояние
почвы
06 19.07.17 360 (С) 20000 м    ясно 
+34.9 +3.4 14 +35  1015.8  0.6  750  268  +19.8         
09 19.07.17 010 (С) 20000 м    3/3 1000 м 
[Cu med, cong]
+37.1 +5.1 14 +37  1014.7  0.2  749  265           
12 19.07.17 120 (ЮВ) 13  20000 м    6/6 1000 м 
[Cu med, cong]
+37.7 +3.6 12 +38  1013.1  -1.2  748  264           
15 19.07.17 090 (В) 20000 м    1/1 1000 м 
[Cu med, cong]
+35.9 +4.2 14 +36  1012.6  -1.4  748  266    +39       
18 19.07.17 110 (В) 20000 м    ясно 
+29.4 +6.6 24 +29  1013.4  -0.5  749  271    +39       
21 19.07.17 090 (В) 20000 м    ясно 
+25.6 +7.9 32 +26  1013  0.8  748  274           
00 20.07.17 080 (В) 20000 м    ясно 
+21.9 +9.5 45 +22  1012.5  -0.4  748  277           
06 20.07.17 100 (В) 20000 м    3/0 верхняя 
[Ci fib]
+34.8 +6.4 17 +35  1013.4  0.3  749  267  +21.3         
09 20.07.17 080 (В) 20000 м    5/0 верхняя 
[Ci sp]
+37.3 +4.6 13 +37  1012.4  -1  748  264           
12 20.07.17 090 (В) 13  20000 м    8/0 верхняя 
[Ci sp]
+37.5 +4.5 13 +38  1011.1  -1.4  747  264           
15 20.07.17 100 (В) 13  20000 м    6/0 верхняя 
[Ci sp]
+35.1 +4.3 15 +35  1011.1  0.1  747  266    +38.9       
18 20.07.17 120 (ЮВ) 20000 м    3/0 верхняя 
[Ci sp]
+28.1 +6.6 26 +28  1011.9  0.8  747  272    +38.9       
21 20.07.17 080 (В) 20000 м    3/0 верхняя 
[Ci sp]
+23.8 +8.3 37 +24  1011.7  -0.3  747  276           
00 21.07.17 090 (В) 20000 м    3/0 верхняя 
[Ci sp]
+22.7 +9.1 42 +23  1012.2  0.5  748  277           
03 21.07.17 080 (В) 20000 м    ясно 
+27.2 +8.8 31 +27  1013  0.9  748  273           
06 21.07.17 120 (ЮВ) 20000 м    ясно 
+35.6 +5 15 +36  1013.4  0.7  749  266  +21.4         
09 21.07.17 090 (В) 20000 м    ясно 
+38.2 +4.8 13 +38  1012.6  0.2  748  264           
12 21.07.17 110 (В) 20000 м    ясно 
+38.7 +5.2 13 +39  1011.8  -0.6  747  263           
15 21.07.17 090 (В) 20000 м    ясно 
+36.8 +5.4 14 +37  1011.6  -0.8  747  264    +39.4       
18 21.07.17 070 (В) 20000 м    ясно 
+30.1 +7.3 24 +30  1012.6  748  270    +39.4       
21 21.07.17 050 (СВ) 20000 м    ясно 
+24.3 +8.5 37 +24  1012.1  -0.4  748  275           
00 22.07.17 080 (В) 20000 м    ясно 
+23.7 +8.5 38 +24  1010.8  0.9  747  276           
03 22.07.17 180 (Ю) 20000 м    ясно 
+26.5 +9.8 35 +27  1010.5  -0.2  747  273           
06 22.07.17 290 (З) 20000 м    ясно 
+36.5 +7.7 17 +37  1012.8  2.7  749  265  +22.8         
09 22.07.17 250 (З) 20000 м    ясно 
+40.1 +5.1 12 +40  1012.8  0.6  748  262           
Время (UTC), дата Ветер
(°,м/с) 
Видим.   Явления Облачность Т
(°С)
Тd
(°С)
f(%) Тe
(°С)
Pmin
(гПа)
dP
(гПа)
Po
(мм)
O2
(г/м3)
Тmin Tmax R s Состояние
почвы

Для получения пояснительной информации подведите курсор к названию столбца.

ПОГОДА в Жаслыке - архив

Всё, что Вы хотите узнать о погоде в Жаслыке - удобно и подробно!

Выберите нужную дату (начиная с 1 января 2015* года) и нажмите кнопку "Найти".
Будут отображены архивные сводки погоды по пункту Жаслык, начиная с указанной даты.


Отображать данные в формате CSV (для использования в таблицах Excel)


Внимание! Наш архив погоды предназначен исключительно для личного некоммерческого использования в познавательных целях. Если Вам необходимы официальные справки о состоянии погоды (для производственных, юридических, коммерческих и т.п. целей), обращайтесь в органы Росгидромета.

*Примечание: данная дата относится к архиву по метеостанциям СССР (Россия, СНГ, Балтия).
Архив по метеостанциям Зарубежной Европы и Азии (кроме Китая) хранится 10 дней, по другим регионам земного шара (Китай, Африка, Америка, Австралия, Океания) - 1 день.

Жаслык - район местоположения метеостанции


Название, широта, долгота, высота метеостанции:
Жаслык 43.9°ш. 57.5°д. 128 м над ур. моря [Узбекистан]

Дополнительная информация

В oтличие oт бoльшинства пoгoдных сайтoв мы публикуем пoдрoбную метеoинфoрмацию в детальнoм прoфессиoнальнoм фoрмате.

Характеристики температуры и влажнoсти вoздуха измеряются на высoте 2 м в тени вдали oт зданий и деревьев.
Скoрoсть ветра измеряется на высoте 10 м (на урoвне рoста челoвека скoрoсть ветра ниже в 1.5-2 раза). Если метеoстанция нахoдится в гoрoде или в лесу, тo скoрoсть ветра занижена на 2-4 м/с пo сравнению с oткрытым местoм. Скoрoсть ветра над акватoриями крупных рек и oзёр, а также на вершинах хoлмoв на 2-5 м/с выше, чем в oбычных услoвиях.
Атмoсфернoе давление в разных тoчках местнoсти мoжет значительнo oтличаться oт давления на метеoстанции, в зависимoсти oт услoвий рельефа (при пoдъёме на 10 м давление пoнижается примернo на 1 мм рт.ст.).